Weather History for K21D - July, 2013

Change the Weather History Date:

Monday, July 8, 2013

  Actual Average (KSTP) Record (KSTP)
Temperature  
Mean Temperature 74 °F -  
Max Temperature 84 °F 79 °F 96 °F (2007)
Min Temperature 64 °F 60 °F 53 °F (2004)
Cooling Degree Days 9    
Growing Degree Days 24 (Base 50)    
Moisture  
Dew Point 68 °F    
Average Humidity 85    
Maximum Humidity 100    
Minimum Humidity 62    
Precipitation  
Precipitation 0.00 in - - ()
Sea Level Pressure  
Sea Level Pressure 29.97 in    
Wind  
Wind Speed 4 mph (North)    
Max Wind Speed 8 mph    
Max Gust Speed -    
Visibility 8 miles    
Events      
Averages and records for this station are not official NWS values.
T = Trace of Precipitation, MM = Missing Value Source: NWS Daily Summary

Daily Weather History Graph

Daily Weather History Graph

Search for Another Location

Airport or City:

Trip Planner

Search our weather history database for the weather conditions in past years. The results will help you decide how hot, cold, wet, or windy it might be!

Date:

Astronomy

Jul. 08, 2013 Rise Set
Actual Time 5:33 AM CDT 8:59 PM CDT
Civil Twilight 4:56 AM CDT 9:35 PM CDT
Nautical Twilight 4:08 AM CDT 10:23 PM CDT
Astronomical Twilight 3:07 AM CDT 11:24 PM CDT
Moon 6:07 AM CDT (7/8) 8:56 PM CDT (7/8)
Length of Visible Light 16h 39m
Length of Day
15h 25m
New Moon, 0% of the Moon is Illuminated
Jul 8
New Moon
Jul 15
First Quarter
Jul 22
Full
Jul 29
Last Quarter
Aug 6
New

Hourly Weather History & Observations

Time (CDT) Temp. Heat Index Dew Point Humidity Pressure Visibility Wind Dir Wind Speed Gust Speed Precip Events Conditions
12:05 AM 71.6 °F - 69.8 °F 94% 29.90 in 7.0 mi North 5.8 mph - N/A   Overcast
12:25 AM 71.6 °F - 71.6 °F 100% 29.90 in 5.0 mi North 5.8 mph - N/A   Overcast
12:45 AM 73.4 °F - 71.6 °F 94% 29.90 in 5.0 mi North 4.6 mph - N/A   Overcast
1:05 AM 71.6 °F - 71.6 °F 100% 29.91 in 5.0 mi Calm Calm - N/A   Overcast
1:25 AM 71.6 °F - 71.6 °F 100% 29.92 in 4.0 mi Calm Calm - N/A   Overcast
1:45 AM 71.6 °F - 69.8 °F 94% 29.91 in 4.0 mi Calm Calm - N/A   Scattered Clouds
2:05 AM 71.6 °F - 69.8 °F 94% 29.92 in 4.0 mi NW 3.5 mph - N/A   Scattered Clouds
2:25 AM 71.6 °F - 69.8 °F 94% 29.92 in 7.0 mi NNW 5.8 mph - N/A   Mostly Cloudy
2:45 AM 69.8 °F - 69.8 °F 100% 29.91 in 7.0 mi NNW 5.8 mph - N/A   Mostly Cloudy
3:05 AM 69.8 °F - 69.8 °F 100% 29.91 in 3.0 mi NNW 8.1 mph - N/A   Overcast
3:25 AM 69.8 °F - 68.0 °F 94% 29.91 in 2.0 mi NNW 6.9 mph - N/A   Overcast
3:45 AM 68.0 °F - 68.0 °F 100% 29.92 in 4.0 mi NW 3.5 mph - N/A   Overcast
4:05 AM 68.0 °F - 68.0 °F 100% 29.92 in 3.0 mi North 5.8 mph - N/A   Overcast
4:25 AM 66.2 °F - 66.2 °F 100% 29.93 in 3.0 mi North 5.8 mph - N/A   Overcast
4:45 AM 66.2 °F - 66.2 °F 100% 29.93 in 3.0 mi North 8.1 mph - N/A   Overcast
5:05 AM 66.2 °F - 66.2 °F 100% 29.94 in 5.0 mi North 6.9 mph - N/A   Overcast
5:25 AM 66.2 °F - 64.4 °F 94% 29.94 in 7.0 mi NNE 4.6 mph - N/A   Overcast
5:45 AM 64.4 °F - 64.4 °F 100% 29.94 in 1.5 mi North 6.9 mph - N/A   Overcast
6:05 AM 64.4 °F - 64.4 °F 100% 29.95 in 4.0 mi NNE 3.5 mph - N/A   Overcast
6:25 AM 64.4 °F - 64.4 °F 100% 29.95 in 0.5 mi Calm Calm - N/A   Overcast
6:45 AM 64.4 °F - 64.4 °F 100% 29.96 in 2.5 mi Calm Calm - N/A   Overcast
7:05 AM 64.4 °F - 64.4 °F 100% 29.96 in 5.0 mi NNE 4.6 mph - N/A   Overcast
7:25 AM 64.4 °F - 64.4 °F 100% 29.97 in 3.0 mi NNW 4.6 mph - N/A   Overcast
7:45 AM 64.4 °F - 62.6 °F 94% 29.98 in 5.0 mi North 3.5 mph - N/A   Overcast
8:05 AM 64.4 °F - 62.6 °F 94% 29.98 in 4.0 mi Calm Calm - N/A   Overcast
8:25 AM 64.4 °F - 62.6 °F 94% 29.99 in 10.0 mi NW 3.5 mph - N/A   Overcast
8:45 AM 64.4 °F - 62.6 °F 94% 29.99 in 10.0 mi NNW 5.8 mph - N/A   Overcast
9:05 AM 66.2 °F - 64.4 °F 94% 30.00 in 10.0 mi North 3.5 mph - N/A   Overcast
9:25 AM 66.2 °F - 64.4 °F 94% 30.01 in 10.0 mi North 6.9 mph - N/A   Overcast
9:45 AM 68.0 °F - 64.4 °F 88% 30.00 in 10.0 mi WNW 4.6 mph - N/A   Mostly Cloudy
10:05 AM 69.8 °F - 64.4 °F 83% 30.01 in 10.0 mi NNW 3.5 mph - N/A   Mostly Cloudy
10:25 AM 69.8 °F - 66.2 °F 88% 30.02 in 10.0 mi NNW 8.1 mph - N/A   Overcast
10:45 AM 69.8 °F - 66.2 °F 88% 30.02 in 10.0 mi North 6.9 mph - N/A   Overcast
11:05 AM 69.8 °F - 64.4 °F 83% 30.02 in 10.0 mi NNE 3.5 mph - N/A   Mostly Cloudy
11:25 AM 69.8 °F - 64.4 °F 83% 30.02 in 10.0 mi North 6.9 mph - N/A   Scattered Clouds
11:45 AM 71.6 °F - 66.2 °F 83% 30.02 in 10.0 mi North 4.6 mph - N/A   Clear
12:05 PM 73.4 °F - 66.2 °F 78% 30.02 in 10.0 mi North 8.1 mph - N/A   Clear
12:25 PM 73.4 °F - 66.2 °F 78% 30.01 in 10.0 mi NNW 8.1 mph - N/A   Clear
12:45 PM 75.2 °F - 66.2 °F 73% 30.01 in 10.0 mi NE 5.8 mph - N/A   Clear
1:05 PM 75.2 °F - 68.0 °F 78% 30.00 in 10.0 mi North 5.8 mph - N/A   Clear
1:25 PM 75.2 °F - 68.0 °F 78% 30.00 in 10.0 mi NNE 6.9 mph - N/A   Clear
1:45 PM 77.0 °F - 68.0 °F 74% 30.00 in 10.0 mi North 4.6 mph - N/A   Clear
2:05 PM 77.0 °F - 68.0 °F 74% 30.00 in 10.0 mi NNE 3.5 mph - N/A   Clear
2:25 PM 78.8 °F - 69.8 °F 74% 30.00 in 10.0 mi Calm Calm - N/A   Clear
2:45 PM 80.6 °F 83.9 °F 69.8 °F 70% 29.99 in 10.0 mi NNE 3.5 mph - N/A   Clear
3:05 PM 80.6 °F 83.9 °F 69.8 °F 70% 29.99 in 10.0 mi NNW 5.8 mph - N/A   Clear
3:25 PM 80.6 °F 83.9 °F 69.8 °F 70% 29.99 in 10.0 mi NNW 6.9 mph - N/A   Clear
3:45 PM 82.4 °F 87.2 °F 71.6 °F 70% 29.99 in 10.0 mi NNW 4.6 mph - N/A   Clear
4:05 PM 82.4 °F 86.3 °F 69.8 °F 66% 29.98 in 10.0 mi NNW 5.8 mph - N/A   Clear
4:25 PM 82.4 °F 86.3 °F 69.8 °F 66% 29.98 in 10.0 mi North 3.5 mph - N/A   Clear
4:45 PM 82.4 °F 86.3 °F 69.8 °F 66% 29.99 in 10.0 mi NW 5.8 mph - N/A   Clear
5:05 PM 82.4 °F 86.3 °F 69.8 °F 66% 29.99 in 10.0 mi NNW 6.9 mph - N/A   Clear
5:25 PM 82.4 °F 86.3 °F 69.8 °F 66% 29.98 in 10.0 mi North 5.8 mph - N/A   Clear
5:45 PM 84.2 °F 88.4 °F 69.8 °F 62% 29.98 in 10.0 mi Calm Calm - N/A   Clear
6:05 PM 82.4 °F 85.4 °F 68.0 °F 62% 29.97 in 10.0 mi North 3.5 mph - N/A   Clear
6:25 PM 82.4 °F 86.3 °F 69.8 °F 66% 29.97 in 10.0 mi NNW 3.5 mph - N/A   Clear
6:45 PM 82.4 °F 86.3 °F 69.8 °F 66% 29.98 in 10.0 mi NNW 5.8 mph - N/A   Clear
7:05 PM 82.4 °F 85.4 °F 68.0 °F 62% 29.98 in 10.0 mi North 5.8 mph - N/A   Clear
7:25 PM 80.6 °F 83.9 °F 69.8 °F 70% 29.98 in 10.0 mi NNE 4.6 mph - N/A   Clear
7:45 PM 78.8 °F - 69.8 °F 74% 29.98 in 10.0 mi NNE 4.6 mph - N/A   Clear
8:05 PM 78.8 °F - 69.8 °F 74% 29.99 in 10.0 mi Calm Calm - N/A   Clear
8:25 PM 77.0 °F - 69.8 °F 78% 29.98 in 10.0 mi NE 4.6 mph - N/A   Clear
8:45 PM 75.2 °F - 69.8 °F 83% 29.97 in 10.0 mi NE 3.5 mph - N/A   Clear
9:05 PM 75.2 °F - 69.8 °F 83% 29.97 in 10.0 mi NE 3.5 mph - N/A   Clear
9:25 PM 73.4 °F - 69.8 °F 88% 29.97 in 10.0 mi ENE 3.5 mph - N/A   Clear
9:45 PM 73.4 °F - 69.8 °F 88% 29.97 in 10.0 mi NE 3.5 mph - N/A   Clear
10:05 PM 73.4 °F - 69.8 °F 88% 29.98 in 10.0 mi Calm Calm - N/A   Clear
10:25 PM 71.6 °F - 69.8 °F 94% 29.98 in 10.0 mi Calm Calm - N/A   Clear
10:45 PM 71.6 °F - 69.8 °F 94% 29.99 in 10.0 mi Calm Calm - N/A   Clear
11:05 PM 69.8 °F - 68.0 °F 94% 30.00 in 10.0 mi Calm Calm - N/A   Clear
11:25 PM 71.6 °F - 69.8 °F 94% 30.00 in 10.0 mi Calm Calm - N/A   Clear
11:45 PM 71.6 °F - 69.8 °F 94% 29.99 in 10.0 mi Calm Calm - N/A   Clear